Tracking 35334 objects as of 12-Sep-2026
HD Live streaming from Space Station
objects crossing your sky now

ESRO 4


ESRO 4 is no longer on orbit


NORAD ID: 6285
Int'l Code: 1972-092A
Launch date: November 22, 1972
Source: European Space Research Organization (ESRO)
Launch site: AIR FORCE WESTERN TEST RANGE (AFWTR)
Decay date: 1974-04-15
Your satellite tracking list
Your tracking list is empty




NASA's NSSDC Master Catalog

Two Line Element Set (TLE):
1 06285U 72092  A 74102.56081435  .01995071 +19882-1 +10878-2 0  9994
2 06285 091.0541 197.0816 0059827 070.1195 290.6485 16.21316685076432
Source of the keplerian elements: AFSPC